Regional Weather Roundup
Issued by NWS Grand Forks, ND

Home | Current Version | Previous Version | Graphics & Text | Print | Product List | Glossary On
Versions: 1 2 3 4 5 6 7 8 9 10 11 12 13 14 15 16 17 18 19 20 21 22 23 24 25 26 27 28 29 30 31 32 33 34 35 36 37 38 39 40 41 42 43 44 45 46 47 48 49 50
000
ASUS43 KFGF 272210
RWRFGF
PRAIRIE TO PINES  WEATHER ROUNDUP
NATIONAL WEATHER SERVICE EASTERN NORTH DAKOTA/GRAND FORKS ND
500 PM CDT SUN JUL 27 2014

 **SATELLITE DATA USED TO AUGMENT SKY COVER AT AUTOMATED STATIONS**
 *****  WEATHER ACROSS EASTERN NORTH DAKOTA  *****

CITY           SKY/WX    TMP DP  RH WIND       PRES   REMARKS
GRAND FORKS    CLOUDY    67  57  70 N10G18    30.16S
GRAND FRKS AFB CLOUDY    68  58  68 N13       30.18R
GRAND FRKS NWS   N/A     64 N/A N/A MISG        N/A
DEVILS LAKE    CLOUDY    64  52  63 N10       30.22R
FARGO          CLOUDY    66  57  72 NW17      30.15R
WAHPETON ARPT  CLOUDY    64  54  68 NW15G22   30.15S
$$

 ***** WEATHER ACROSS CENTRAL AND WESTERN NORTH DAKOTA  *****

CITY           SKY/WX    TMP DP  RH WIND       PRES   REMARKS
BISMARCK       CLOUDY    68  51  54 N13G20    30.28R
MINOT          CLOUDY    67  50  54 NW9       30.27S
JAMESTOWN      CLOUDY    65  54  67 N14       30.22R
MINOT AFB      PTSUNNY   67  51  55 N12       30.27S
GARRISON         N/A     69  50  50 N14       30.28F
WILLISTON      SUNNY     75  51  43 N10       30.29S
DICKINSON      MOSUNNY   73  51  46 NW9       30.28F
HETTINGER      MOSUNNY   72  53  51 N8        30.30F
$$

 *****  OTHER AIRPORT OBSERVATIONS IN OUR AREA  *****

CITY           SKY/WX    TMP DP  RH WIND       PRES   REMARKS
WALHALLA         N/A     68  54  60 N15         N/A
GRAFTON AIRPOR CLOUDY    68  57  68 N10G17    30.17S
VALLEY CITY AR CLOUDY    66  55  68 N14       30.20R
CANDO          CLOUDY    64  54  68 N12       30.25R
CAVALIER APRT  CLOUDY    68  52  56 N14       30.19R
GWINNER        CLOUDY    68  55  64 N14G20    30.19S
ROLLA          CLOUDY    63  52  67 N10       30.27S
 ***** THE ABOVE OBSERVATIONS ARE NON NWS ARE NOT QUALITY
       CONTROLLED AND MAY MIS-REPORT RAIN FOR SNOW...
$$

  *****  WEATHER ACROSS NORTHERN MINNESOTA  *****

CITY           SKY/WX    TMP DP  RH WIND       PRES   REMARKS
FLAG ISLAND    PTSUNNY   70  50  49 N13       30.12S
WARROAD        CLOUDY    68  55  64 N7        30.14S
ROSEAU         PTSUNNY   68  57  68 N7        30.15R
HALLOCK        MOSUNNY   68  57  68 N8        30.16S
THF RVR FALLS  CLOUDY    64  57  77 N10       30.16R
BAUDETTE       MOSUNNY   69  49  48 N13       30.12S
WASKISH        CLOUDY    66  55  68 CALM      30.11R
CROOKSTON      CLOUDY    66  57  72 N10       30.16R
$$
  *****  WEATHER ACROSS CENTRAL AND WEST MINNESOTA  *****

CITY           SKY/WX    TMP DP  RH WIND       PRES   REMARKS
FOSSTON        CLOUDY    64  57  77 NW10      30.14R
BEMIDJI        CLOUDY    65  57  73 N10G17    30.11R
PARK RAPIDS    PTSUNNY   71  61  70 NW15      30.08R
ELBOW LAKE     CLOUDY    68  58  72 NW18G25   30.11S
WADENA         LGT RAIN  63  61  94 N8        30.09R
DETROIT LAKES  PTSUNNY   64  59  82 NW16G22   30.14R
MOORHEAD       CLOUDY    66  61  82 N12       30.16R
FERGUS FALLS   CLOUDY    66  55  68 N15       30.12S
MORRIS MN      MOSUNNY   72  59  64 NW22      30.11R
STAPLES        MOSUNNY   72  57  60 N13       30.06S
$$
  *****  WEATHER ELSEWHERE ACROSS MINNESOTA  *****

CITY           SKY/WX    TMP DP  RH WIND       PRES   REMARKS
DULUTH         CLOUDY    58  55  90 E3        30.06R FOG
INTRNTL FALLS  MOSUNNY   70  52  52 N8        30.08R
ELY            MOSUNNY   66  50  55 N6        30.04R
CLOQUET        CLOUDY    57  54  88 E6        30.07R
WHEATON        NOT AVBL
BRAINERD       MOSUNNY   71  56  58 NE17G24   30.05R
HIBBING        CLOUDY    65  54  67 N8        30.07R
ALEXANDRIA     PTSUNNY   72  58  61 NW18G25   30.10R
SAINT CLOUD    CLOUDY    75  57  53 N12G18    30.01R
MINNEAPOLIS    PTSUNNY   76  59  55 N14       29.97R
$$

  *****  WEATHER ACROSS SOUTH DAKOTA  *****

CITY           SKY/WX    TMP DP  RH WIND       PRES   REMARKS
SIOUX FALLS    CLOUDY    70  56  61 N22       30.16R
BROOKINGS      NOT AVBL
WATERTOWN      CLOUDY    66  57  72 NW15      30.17S
HURON          PTSUNNY   70  55  59 N17       30.19S
SISSETON         N/A     65  57  75 N14       30.16R
ABERDEEN       CLOUDY    67  55  65 N18       30.21R
MITCHELL       MOSUNNY   73  58  59 N14G25    30.18S
PIERRE         MOSUNNY   77  54  44 N15       30.21F
MOBRIDGE       SUNNY     73  54  51 N14G22    30.22S
RAPID CITY     SUNNY     82  48  30 NE8       30.28S
$$

  *****  SOME WEATHER IN NEARBY STATES *****

CITY           SKY/WX    TMP DP  RH WIND       PRES   REMARKS
GLASGOW MT     SUNNY     81  50  33 VRB3      30.23F
GREAT FALLS MT SUNNY     87  36  16 NE7       30.22F
CHEYENNE WY    MOSUNNY   74  55  51 S10G18    30.39F
SCOTTSBLUFF NE SUNNY     85  52  32 VRB5      30.29F
OMAHA NE       MOSUNNY   80  56  43 NW20G29   30.09R
DES MOINES IA  PTSUNNY   78  57  48 NW22G31   30.01S
DAVENPORT IA   PTSUNNY   74  58  57 NW20G29   29.90R
CHICAGO IL     PTSUNNY   79  53  40 NW25G31   29.74R
EAU CLAIRE WI  MOSUNNY   73  59  61 N15G25    29.92R
LA CROSSE WI   MOSUNNY   76  60  57 NW17      29.87R
$$

  *****  SOME NATIONAL WEATHER *****

CITY           SKY/WX    TMP DP  RH WIND       PRES   REMARKS
LA GUARDIA NY  PTSUNNY   87  64  46 SW8       29.67F
RALEIGH NC     PTSUNNY   85  70  60 SW16      29.83F
ATLANTA GA     MOSUNNY   90  70  51 W13       29.96F HX  95
NEW ORLEANS LA MOSUNNY   91  72  53 W9        30.03F HX  98
OKLAHOMA CITY  CLOUDY    93  71  48 NE20G26   30.04S HX 100
ALBUQUERQUE NM PTSUNNY   78  56  46 N36G45    30.20S
SALT LAKE CITY PTSUNNY   98  38  12 NW10      30.10F HX  93
LOS ANGELES CA PTSUNNY   71  65  81 W9        29.99F
BOISE ID       SUNNY     96  36  12 W5        30.05F HX  91
SEATTLE WA     MOSUNNY   81  53  37 N10       30.13F
$$

*** WEATHER ACROSS MANITOBA...SASKATCHEWAN AND ONTARIO ***
                ***ONTARIO***

CITY           SKY/WX    TMP DP  RH WIND       PRES   REMARKS
GERALDTON      PTSUNNY   63  46  55 N13       29.99R
THUNDER BAY    MOSUNNY   70  50  49 N9G22     29.98R
SIOUX LOOKOUT  CLOUDY    68  50  52 N7        30.10R
TORONTO        PTSUNNY   82  57  42 NW9       29.61F
BIG TROUT LK   SUNNY     72  50  46 N12       30.05S
PICKLE LAKE    CLOUDY    68  46  45 VRB6      30.06S
DRYDEN         MOSUNNY   68  50  52 N7        30.10R
KENORA         PTSUNNY   70  52  52 N10       30.14R
$$
                *** MANITOBA***

CITY           SKY/WX    TMP DP  RH WIND       PRES   REMARKS
BRANDON        CLOUDY    66  52  59 N6        30.26S
DAUPHIN        MOSUNNY   70  52  52 NE6       30.25S
ISLAND LAKE    MOSUNNY   73  50  43 NW5       30.16F
PILOT MOUND      N/A     64  54  68 N9          N/A
THE PAS        MOSUNNY   72  48  43 N3        30.26S
THOMPSON       MOSUNNY   79  48  34 N5        30.20S
WINNIPEG       PTSUNNY   68  50  52 N13       30.19S
LYNN LAKE      SUNNY     77  39  25 SE5       30.24F
CHURCHILL      PTSUNNY   75  52  43 NW10      30.09S
GILLAM         CLOUDY    79  50  36 N12       30.12F
$$
                ***SASKATCHEWAN***

CITY           SKY/WX    TMP DP  RH WIND       PRES   REMARKS
ESTEVAN        PTSUNNY   68  54  60 NW3       30.30S
KINDERSLEY     MOSUNNY   72  57  60 CALM      30.26S
LLOYDMINSTER   PTSUNNY   72  57  60 SW7       30.23S
PRINCE ALBERT  PTSUNNY   66  54  63 VRB5      30.28S
REGINA         PTSUNNY   70  57  64 E7        30.28F
YORKTON        CLOUDY    66  50  55 VRB5      30.28F
N. BATTLEFORD    N/A     68  61  77 SE12      30.26S
LA RONGE       MOSUNNY   72  50  46 SE8       30.25F
SASKATOON      PTSUNNY   70  57  64 E7        30.28F
SWIFT CURRENT  PTSUNNY   73  54  49 SW7       30.25F
$$
NOTE: THESE ARE AUTOMATED STATIONS WITH LIMITED QUALITY CONTROL
      "FAIR" INDICATES FEW OR NO CLOUDS BELOW 12,000 FEET WITH NO
      SIGNIFICANT WEATHER AND/OR OBSTRUCTIONS TO VISIBILITY.
      SKY/WX - SKY CONDITION AND SIGNIFICANT WEATHER.
      TMP - AIR TEMPERATURE.    DP   - DEWPOINT TEMPERATURE.
      RH  - RELATIVE HUMIDITY.  PRES - PRESSURE.
      HX  - HEAT INDEX.         WCI  - WIND CHILL INDEX.
$


USA.gov is the U.S. government's official web portal to all federal, state and local government web resources and services.